Regional Weather Roundup
Issued by NWS

Home | Current Version | Previous Version | Graphics & Text | Print | Product List | Glossary On
Versions: 1 2 3 4 5 6 7 8 9 10 11 12 13 14 15 16 17 18 19 20 21 22 23 24 25 26 27 28 29 30 31 32 33 34 35 36 37 38 39 40 41 42 43 44 45 46 47 48 49 50
000
ASUS43 KTOP 280708
RWRKS

WEATHER ROUNDUP FOR KANSAS
NATIONAL WEATHER SERVICE GOODLAND KS
200 AM CDT THU AUG 28 2014

NOTE:  "FAIR" INDICATES FEW OR NO CLOUDS BELOW 12,000 FEET WITH NO
SIGNIFICANT WEATHER AND/OR OBSTRUCTIONS TO VISIBILITY.

KSZ001>006-013>018-027>032-041>047-280800-
NORTHWEST KANSAS

CITY           SKY/WX    TMP DP  RH WIND       PRES   REMARKS
GOODLAND       LGT RAIN  61  60  97 N17       30.08R
HAYS           MOCLDY    72  64  78 E7        29.96F
HILL CITY      CLEAR     66  64  93 SE8       29.96F
RUSSELL        PTCLDY    71  67  87 CALM      29.95F
$$

KSZ061>065-074>080-084>089-280800-
SOUTHWEST KANSAS

CITY           SKY/WX    TMP DP  RH WIND       PRES   REMARKS
DODGE CITY     PTCLDY    72  62  71 S12       29.98F
ELKHART          N/A     68  60  75 S14         N/A
GARDEN CITY    CLEAR     67  64  90 S6        29.97F
GREAT BEND     MOCLDY    73  64  73 SE7       29.97F
LIBERAL        CLEAR     70  61  73 S10       30.00F
PRATT          CLOUDY    77  63  61 S9        29.99F
$$

KSZ066>073-081>083-090>101-280800-
SOUTHEAST KANSAS

CITY           SKY/WX    TMP DP  RH WIND       PRES   REMARKS
CHANUTE        PTCLDY    76  67  73 SE6       30.00F
COFFEYVILLE    CLEAR     77  70  79 S6        29.99F
HUTCHINSON     CLOUDY    82  64  54 S13       29.97S
MEDICINE LODGE   N/A     81  65  58 S5        29.96F
NEWTON         CLOUDY    79  61  53 S9        30.01S
PARSONS        PTCLDY    78  68  71 SE6       30.01S
WICHITA INTL   MOCLDY    79  64  60 S12       29.97F
WICHITA JABRA  CLOUDY    80  64  58 S13       29.97F
WICHITA MCCONL MOCLDY    80  64  59 SE15      29.98F
WINFIELD       MOCLDY    78  66  66 SE8       29.99F
$$

KSZ007>012-019>026-033>040-048>060-102>105-280800-
NORTHEAST KANSAS

CITY           SKY/WX    TMP DP  RH WIND       PRES   REMARKS
CONCORDIA      CLOUDY    74  72  93 NW8       29.98R THUNDER
EMPORIA        CLOUDY    78  67  68 SE12      29.99F
LAWRENCE       MOCLDY    79  72  79 E7        29.99F
MANHATTAN      CLOUDY    80  70  71 SE10      29.95F
MARYSVILLE     CLOUDY    73  72  94 SE9       29.96F
OLATHE IND     MOCLDY    76  73  91 SE6       30.01F
OLATHE EXE     MOCLDY    76  73  91 SE6       30.00F
SALINA         CLOUDY    80  67  64 SE7       29.95F
TOPEKA BILLARD CLOUDY    79  74  84 E6        29.99F
TOPEKA FORBES  CLOUDY    76  72  87 SE7       29.99F
$$



USA.gov is the U.S. government's official web portal to all federal, state and local government web resources and services.